User: anonymous   Login
Location: Unspecified
(0.0000°N, 0.0000°E)
Time: 10:32:44
(UTC+00:00)
Language:

OFEQ 10 - Orbit

View from above orbital plane
View from above orbital plane
View from above satellite
View from above satellite

Ground track
Ground track

The orbit data is extracted from the following two-line orbital elements,

1 39650U 14019A   18193.40624043 0.00000000  00000-0  00000-0 0    06
2 39650 140.9237 105.7795 0003146  30.9042 329.0951 15.16840741    03
Epoch (UTC): 12 July 2018 09:44:59
Eccentricity: 0.0003146
inclination: 140.9237°
perigee height: 513 km
apogee height: 517 km
right ascension of ascending node: 105.7795°
argument of perigee: 30.9042°
revolutions per day: 15.16840741
mean anomaly at epoch: 329.0951°
orbit number at epoch: 0

The dashed part of the orbit path shows where the satellite is in the earth's shadow,  

DLR